This is the latest recevied weather packets stored in our database for station/object DO1MIT-10. If no packets are shown the sender has not sent any weather packets the latest 10 day(s).
| Time | Temp. | Humidity | Pressure | Rain* | Wind** | Luminosity | Snow |
|---|---|---|---|---|---|---|---|
| 1787479656 | 18.33° C | 72% | 1025.8 hPa | - | - | - | - |
| 1787478756 | 18.33° C | 74% | 1026 hPa | - | - | - | - |
| 1787477856 | 18.33° C | 75% | 1026 hPa | - | - | - | - |
| 1787476956 | 19.44° C | 76% | 1026 hPa | - | - | - | - |
| 1787476056 | 17.78° C | 77% | 1025.9 hPa | - | - | - | - |
| 1787475156 | 17.78° C | 79% | 1025.9 hPa | - | - | - | - |
| 1787474256 | 17.22° C | 80% | 1025.9 hPa | - | - | - | - |
| 1787473356 | 16.67° C | 82% | 1025.8 hPa | - | - | - | - |
| 1787472456 | 17.22° C | 82% | 1025.9 hPa | - | - | - | - |
| 1787471556 | 16.67° C | 84% | 1025.8 hPa | - | - | - | - |
| 1787470656 | 16.11° C | 84% | 1025.8 hPa | - | - | - | - |
| 1787469756 | 15.56° C | 85% | 1025.7 hPa | - | - | - | - |
| 1787468855 | 15° C | 86% | 1025.7 hPa | - | - | - | - |
| 1787467955 | 14.44° C | 87% | 1025.6 hPa | - | - | - | - |
| 1787467054 | 14.44° C | 88% | 1025.6 hPa | - | - | - | - |
| 1787466154 | 13.89° C | 89% | 1025.6 hPa | - | - | - | - |
| 1787465254 | 13.33° C | 89% | 1025.3 hPa | - | - | - | - |
| 1787464354 | 12.78° C | 90% | 1025.2 hPa | - | - | - | - |
| 1787463454 | 12.22° C | 90% | 1025.1 hPa | - | - | - | - |
| 1787462554 | 11.11° C | 91% | 1025 hPa | - | - | - | - |
| 1787461654 | 10° C | 91% | 1025.1 hPa | - | - | - | - |
| 1787460754 | 10° C | 92% | 1024.9 hPa | - | - | - | - |
| 1787459853 | 9.44° C | 92% | 1024.7 hPa | - | - | - | - |
| 1787458953 | 9.44° C | 91% | 1024.7 hPa | - | - | - | - |
| 1787458053 | 9.44° C | 91% | 1024.5 hPa | - | - | - | - |
* Rain since midnight (hover to see other rain measurements)
** Current wind speed in m/s (hover to see current wind gust speed)